Location: Grieser Field
(39.7333°N, 81.7975°W)
Time: 06:04:42
(UTC-04:00)

Daily predictions for brighter satellites

Satellite Brightness Start Highest point End
(mag) Time Altitude Azimuth Time Altitude Azimuth Time Altitude Azimuth
Cosmos 1891 Rocket 4.5 21:16:17 10° N 21:22:25 80° E 21:28:26 10° S
Envisat 3.9 21:18:04 10° SE 21:22:35 33° ENE 21:27:07 10° N
GEOS 3 Rocket 3.9 21:19:04 10° SE 21:24:15 61° NE 21:29:24 10° NNW
CZ-2D R/B 4.3 21:20:54 10° S 21:24:41 48° W 21:28:30 10° NNW
Milstar 3 Cent rocket 4.4 21:19:56 10° WSW 21:26:34 20° SW 21:31:04 10° S
FENGYUN 3A 4.2 21:27:29 10° S 21:32:47 62° W 21:38:09 10° NNW
Cosmos 1515 4.2 21:29:45 10° SSE 21:33:21 39° E 21:36:59 10° NNE
CZ-2C R/B 0.4 21:31:57 10° S 21:34:12 78° WSW 21:36:28 10° NNW
Cosmos 1602 Rocket 3.8 21:30:35 10° S 21:35:02 78° W 21:39:32 10° N
Cosmos 1603 4.4 21:32:35 10° SW 21:38:06 59° WNW 21:43:40 10° NNE
Cosmos 1825 Rocket 4.3 21:34:31 10° SSE 21:38:32 34° E 21:42:32 10° NNE
USA 186 3.7 21:41:20 10° SSW 21:43:30 21° W 21:45:35 10° NW
ALOS 3.6 21:41:25 10° SSW 21:45:45 38° W 21:50:08 10° NNW
Cosmos 1943 Rocket 3.6 21:41:44 10° N 21:46:06 23° NE 21:50:21 11° ESE
Cosmos 1812 Rocket 3.6 21:42:40 10° N 21:47:06 90° ENE 21:51:32 10° S
Lacrosse 4 Rocket 1.4 21:43:18 10° S 21:47:14 54° ESE 21:51:14 10° NE
Atlas Centaur 2 3.3 21:47:22 10° WSW 21:53:43 40° S 22:00:12 14° ESE
Cosmos 1992 Rocket 4.0 21:50:16 10° NNW 21:55:32 85° ENE 22:00:17 12° SSE
SeaSat 1 3.2 21:52:49 14° ESE 21:56:39 39° ENE 22:01:13 10° N
Cosmos 1943 3.2 21:51:39 10° SSW 21:57:19 83° ESE 22:03:02 10° NNE
ISS -0.7 21:54:55 10° W 21:57:36 23° NNW 22:00:17 10° NNE
Tsikada Rocket 4.4 21:51:28 10° SSW 21:57:50 72° W 22:04:13 10° N
H-2A R/B 2.4 21:54:03 10° S 21:58:18 65° WSW 22:02:41 10° NNW
deb Chang Zheng 4 4.5 22:01:51 10° N 22:06:07 51° WNW 22:10:20 10° SSW
Meteor 2-12 Rocket 4.5 22:01:17 10° N 22:07:23 83° W 22:13:26 10° S
USA 81 4.0 22:07:35 10° N 22:12:53 73° E 22:17:13 15° SSE
CZ-4B R/B 3.7 22:09:21 10° NNE 22:14:25 56° E 22:19:11 12° S
Cosmos 1953 4.0 22:13:12 10° NNE 22:16:02 19° ENE 22:17:07 17° E
Cosmos 1939 Rocket 3.7 22:12:46 10° S 22:16:49 51° W 22:20:51 10° NNW
PSLV R/B 3.5 22:15:26 10° W 22:18:58 75° N 22:21:15 20° E
Cosmos 2142 Rocket 4.5 22:14:37 10° N 22:20:55 81° E 22:25:55 17° S
Terra 3.6 22:19:03 15° E 22:21:06 19° ENE 22:24:23 10° NNE
ARGOS 3.6 22:18:01 21° SE 22:21:19 46° ENE 22:26:29 10° N
ATLAS 3B R/B 3.1 22:14:12 10° SW 22:21:56 81° WNW 22:29:31 10° NNE
Cosmos 1190 Rocket 4.3 22:17:02 10° SSW 22:22:20 73° WNW 22:27:41 10° NNE
Cosmos 1346 Rocket 2.7 22:19:41 13° S 22:23:08 88° E 22:27:06 10° N
SPOT 5 2.8 22:21:02 17° S 22:24:23 69° WSW 22:28:42 10° NNW
USA 245 4.2 22:21:18 21° SSE 22:25:04 62° ENE 22:29:48 10° N
Cosmos-2242 4.0 22:22:32 10° NNE 22:26:31 32° ENE 22:28:02 25° ESE
Cosmos 1842 3.9 22:25:37 29° SE 22:26:49 37° E 22:30:26 10° NNE
Cosmos 1953 Rocket 3.5 22:23:12 13° S 22:27:09 90° E 22:31:37 10° N
CZ-4 SHROUD 4.1 22:25:31 19° SSW 22:27:29 44° W 22:30:33 10° NNW
Cosmos 1634 Rocket 4.0 22:21:50 10° N 22:28:02 86° W 22:33:07 16° S
MetOp-B 4.1 22:24:18 19° SSE 22:28:15 89° WSW 22:33:39 10° NNW
PSLV R/B 4.0 22:26:39 20° SSW 22:28:28 46° W 22:31:29 10° NNW
Cosmos 1140 Rocket 4.1 22:26:31 24° SSE 22:28:52 36° E 22:33:38 10° NE
H-2A R/B 3.1 22:33:42 22° ESE 22:35:46 29° ENE 22:40:07 10° N
Meteor 1-21 4.2 22:31:59 16° S 22:36:44 74° E 22:42:33 10° NNE
Cosmos 1607 4.3 22:32:57 16° S 22:37:34 42° ESE 22:43:23 10° NE
Cosmos 676 Rocket 4.0 22:34:30 10° SSW 22:39:50 86° WNW 22:45:12 10° NNE
Cosmos 2369 Rocket 2.8 22:35:19 10° NNW 22:40:47 51° WSW 22:44:34 19° S
USA 234 3.7 22:37:08 18° ESE 22:41:59 55° NE 22:48:21 10° NW
SPOT 1/Viking Rocket 3.5 22:41:55 27° SSE 22:44:51 88° WSW 22:50:02 10° NNW
YAOGAN 6 2.8 22:43:54 33° S 22:45:26 69° WSW 22:49:10 10° NNW
Cosmos 2279 Rocket 4.0 22:40:19 10° N 22:46:36 78° E 22:50:13 27° SSE
Cosmos 1932 4.3 22:40:27 10° SSW 22:46:36 85° ESE 22:52:52 10° NNE
SL-08 RB Rocket 3.6 22:51:27 38° SSE 22:53:08 76° ENE 22:57:39 10° N
NOAA 11 4.1 22:51:03 31° SSE 22:53:42 82° ENE 22:59:09 10° NNW
Cosmos 1766 3.4 22:49:49 10° N 22:53:50 74° W 22:55:14 39° S
SAR-Lupe-2 4.2 22:58:16 39° E 22:58:26 39° ENE 23:01:49 10° N
Cosmos 1758 Rocket 4.5 22:57:13 15° SSW 23:00:40 46° W 23:04:53 10° N
CARTOSAT-1 4.0 23:02:00 41° ESE 23:02:51 47° ENE 23:07:00 10° N
CZ-4C R/B 3.2 23:03:36 27° E 23:03:36 27° E 23:07:44 10° NE
Cosmos 1758 3.3 23:00:50 10° N 23:04:58 68° E 23:05:36 57° SE
USA 238 DEB 3.7 23:02:25 10° SSW 23:09:32 88° WNW 23:16:39 10° NNE
USA 238 3.7 23:02:31 10° SSW 23:09:37 89° WNW 23:16:44 10° NNE
SL-27 R/B 3.3 23:10:36 30° WSW 23:11:47 44° WNW 23:15:01 10° N
DMSP B5D2-2 4.1 23:11:41 10° NNE 23:16:54 60° E 23:18:08 47° SSE
Cosmos 1470 3.9 23:16:09 10° NNE 23:19:20 31° ENE 23:19:20 31° ENE
IGS 5A 3.5 23:19:53 60° ESE 23:20:13 63° ENE 23:24:21 10° N
Cosmos 1805 3.1 23:16:17 10° N 23:20:15 90° ESE 23:20:29 79° S
COSMOS 2487 3.3 23:24:52 41° NE 23:24:52 41° NE 23:27:27 10° NNE
COSMOS 2406 3.4 23:21:23 19° SSW 23:25:34 74° WNW 23:31:20 10° NNE
Lacrosse 4 Rocket 4.4 23:24:01 10° W 23:26:18 15° NW 23:28:37 10° NNW
Cosmos 1943 Rocket 2.7 23:24:45 10° NNW 23:30:08 51° WSW 23:31:53 37° SSW
Cosmos 1842 Rocket 3.4 23:28:21 10° N 23:32:47 89° E 23:33:08 76° SSE
Cosmos 2082 Rocket 4.3 23:34:49 12° E 23:34:49 12° E 23:36:03 10° ENE
Cosmos 2084 4.0 23:29:27 10° NW 23:33:28 45° WSW 23:33:35 45° SW
SeaSat 1 3.9 23:32:37 23° SW 23:34:12 27° WSW 23:38:23 10° NW
ISS 0.2 23:34:08 10° NNW 23:34:58 11° N 23:35:49 10° N
CZ-4C R/B 4.4 23:36:09 36° WSW 23:36:46 38° W 23:40:32 10° NNW
Cosmos 1656 Rocket 3.6 23:31:16 10° NNW 23:36:59 86° ENE 23:38:15 56° SSE
Cosmos 2208 Rocket 4.1 23:37:20 10° NNW 23:42:28 65° WSW 23:43:24 54° SSW
Landsat 7 4.5 23:41:38 39° SW 23:42:40 46° W 23:47:14 10° NNW
Atlas Centaur 2 3.7 23:36:16 10° WSW 23:42:49 32° SSW 23:42:49 32° SSW
NOSS 3-2 (C) 3.5 23:43:08 51° SE 23:43:51 54° ESE 23:50:12 10° NE
Cosmos 1707 3.5 23:50:19 46° NE 23:50:19 46° NE 23:53:17 10° NNE
Cosmos 1953 3.8 23:49:05 10° NNW 23:52:30 28° W 23:52:53 27° W
